Data for 03/09/2018

Time Sea-Level Adjusted Pressure Absolute Pressure Temperature Relative Humidity Dew Point   
(mb) (inHg) (mb) (inHg) (C) (F) (%) (C) (F)
00:05 1011 29.85 840 24.81 4.3 39.8 45 -6.6 20.1
00:10 1011 29.85 840 24.81 4.2 39.5 44 -7 19.4
00:15 1011 29.85 840 24.81 4.4 39.8 44 -6.9 19.5
00:20 1011 29.85 840 24.81 4.6 40.3 41 -7.5 18.4
00:25 1011 29.85 840 24.81 5 41 40 -7.7 18.2
00:30 1011 29.85 840 24.81 5.1 41.2 41 -7.2 19.1
00:35 1011 29.85 840 24.81 5.1 41.1 41 -7.3 18.9
00:40 1011 29.85 840 24.81 5.1 41.1 41 -7 19.3
00:45 1011 29.85 840 24.81 4.9 40.8 43 -6.7 19.9
00:50 1011 29.85 840 24.81 4.8 40.6 42 -6.9 19.5
00:55 1011 29.85 840 24.81 4.7 40.5 43 -6.9 19.6
01:00 1011 29.85 840 24.81 4.7 40.5 43 -6.8 19.7
01:05 1011 29.85 840 24.81 4.7 40.4 42 -7.3 18.9
01:10 1011 29.85 840 24.81 4.8 40.7 42 -6.9 19.5
01:15 1011 29.85 840 24.81 4.7 40.4 42 -7.1 19.2
01:20 1011 29.85 840 24.81 4.5 40.2 43 -6.9 19.6
01:25 1010 29.83 840 24.81 4.6 40.3 41 -7.6 18.3
01:30 1010 29.83 840 24.81 4.9 40.8 41 -7.4 18.6
01:35 1010 29.83 840 24.81 4.9 40.7 40 -7.5 18.5
01:40 1010 29.83 840 24.81 4.9 40.8 41 -7.4 18.7
01:45 1010 29.83 839 24.78 4.9 40.7 40 -7.5 18.5
01:50 1010 29.83 839 24.78 4.9 40.9 40 -7.7 18.1
01:55 1010 29.83 839 24.78 5.1 41.1 41 -7.3 18.9
02:00 1010 29.83 839 24.78 5 41 41 -7.3 18.9
02:05 1010 29.83 839 24.78 5 41 41 -7.1 19.3
02:10 1010 29.83 839 24.78 4.8 40.7 42 -7.1 19.3
02:15 1010 29.83 839 24.78 4.7 40.5 42 -7.1 19.2
02:20 1010 29.83 839 24.78 4.7 40.4 43 -6.8 19.8
02:25 1010 29.83 839 24.78 4.4 40 44 -6.9 19.6
02:30 1010 29.83 839 24.78 4.5 40.1 43 -7 19.4
02:35 1010 29.83 839 24.78 4.5 40.1 43 -7 19.4
02:40 1010 29.83 839 24.78 4.4 40 43 -7 19.3
02:45 1010 29.83 839 24.78 4.4 39.9 42 -7.4 18.7
02:50 1010 29.83 839 24.78 4.5 40.1 42 -7.3 18.9
02:55 1010 29.83 839 24.78 4.6 40.2 42 -7.3 18.8
03:00 1010 29.83 839 24.78 4.6 40.3 42 -7.3 18.8
03:05 1010 29.83 839 24.78 4.5 40.2 42 -7.3 18.8
03:10 1010 29.83 839 24.78 4.4 40 42 -7.3 18.9
03:15 1010 29.83 839 24.78 4.3 39.7 43 -7.1 19.1
03:20 1010 29.83 839 24.78 4.1 39.4 44 -7.1 19.2
03:25 1010 29.83 839 24.78 4 39.2 43 -7.4 18.7
03:30 1010 29.83 839 24.78 4 39.3 43 -7.4 18.7
03:35 1010 29.83 839 24.78 4 39.2 44 -7.2 19
03:40 1010 29.83 839 24.78 3.8 38.9 45 -6.9 19.5
03:45 1010 29.83 839 24.78 3.6 38.5 46 -7 19.4
03:50 1010 29.83 839 24.78 3.5 38.4 45 -7.3 18.9
03:55 1010 29.83 839 24.78 3.5 38.4 45 -7.4 18.7
04:00 1010 29.83 839 24.78 3.5 38.3 45 -7.5 18.6
04:05 1010 29.83 839 24.78 3.4 38.1 45 -7.4 18.7
04:10 1010 29.83 839 24.78 3.3 37.9 45 -7.6 18.3
04:15 1010 29.83 839 24.78 3.4 38.2 45 -7.5 18.4
04:20 1010 29.83 839 24.78 3.6 38.4 43 -7.9 17.9
04:25 1010 29.83 839 24.78 3.7 38.6 44 -7.4 18.6
04:30 1010 29.83 839 24.78 3.6 38.5 44 -7.5 18.5
04:35 1010 29.83 839 24.78 3.6 38.4 45 -7.3 18.9
04:40 1010 29.83 839 24.78 3.6 38.4 45 -7.4 18.6
04:45 1010 29.83 839 24.78 3.9 39.1 43 -7.6 18.4
04:50 1010 29.83 839 24.78 4.2 39.5 43 -7.2 19.1
04:55 1010 29.83 839 24.78 4 39.3 44 -7.1 19.3
05:00 1010 29.83 839 24.78 3.9 39 44 -7.2 19
05:05 1010 29.83 839 24.78 4 39.2 44 -7.2 19
05:10 1010 29.83 839 24.78 4.1 39.3 44 -7.1 19.2
05:15 1009 29.8 839 24.78 4 39.3 44 -7.2 19.1
05:20 1009 29.8 839 24.78 4.1 39.3 43 -7.3 18.9
05:25 1009 29.8 839 24.78 4 39.3 43 -7.4 18.7
05:30 1009 29.8 839 24.78 4.2 39.5 42 -7.5 18.5
05:35 1009 29.8 839 24.78 4.3 39.7 43 -7.3 18.8
05:40 1009 29.8 839 24.78 4 39.2 44 -7.2 19.1
05:45 1009 29.8 839 24.78 3.9 39 45 -7 19.4
05:50 1009 29.8 839 24.78 3.9 39.1 45 -7 19.3
05:55 1009 29.8 839 24.78 3.8 38.9 45 -7 19.4
06:00 1009 29.8 839 24.78 3.7 38.7 44 -7.3 18.8
06:05 1009 29.8 839 24.78 3.8 38.9 44 -7.3 18.9
06:10 1009 29.8 838 24.75 3.8 38.9 44 -7.4 18.8
06:15 1009 29.8 838 24.75 3.7 38.7 44 -7.3 18.9
06:20 1009 29.8 838 24.75 3.6 38.6 44 -7.5 18.6
06:25 1009 29.8 838 24.75 3.6 38.4 46 -7.1 19.2
06:30 1009 29.8 838 24.75 3.2 37.8 46 -7.2 19.1
06:35 1009 29.8 838 24.75 3.3 37.9 45 -7.5 18.4
06:40 1009 29.8 838 24.75 3.5 38.2 44 -7.7 18.2
06:45 1009 29.8 838 24.75 3.7 38.6 43 -7.7 18.1
06:50 1009 29.8 838 24.75 3.8 38.9 43 -7.8 18
06:55 1009 29.8 838 24.75 4 39.1 42 -7.8 18
07:00 1009 29.8 838 24.75 3.9 39.1 43 -7.6 18.4
07:05 1009 29.8 838 24.75 4 39.2 42 -7.8 17.9
07:10 1009 29.8 838 24.75 4 39.3 42 -7.8 17.9
07:15 1009 29.8 838 24.75 4.2 39.6 42 -7.7 18.2
07:20 1009 29.8 838 24.75 4.5 40 42 -7.2 19
07:25 1009 29.8 838 24.75 4.5 40.2 42 -7.3 18.9
07:30 1009 29.8 838 24.75 4.6 40.4 43 -7 19.3
07:35 1009 29.8 838 24.75 4.6 40.2 44 -6.7 19.9
07:40 1009 29.8 838 24.75 4.5 40.1 45 -6.4 20.5
07:45 1009 29.8 838 24.75 4.4 39.9 45 -6.5 20.3
07:50 1009 29.8 838 24.75 4.5 40.1 45 -6.5 20.3
07:55 1009 29.8 838 24.75 4.6 40.3 45 -6.4 20.4
08:00 1009 29.8 838 24.75 4.7 40.5 44 -6.6 20.2
08:05 1009 29.8 838 24.75 4.6 40.4 44 -6.6 20.2
08:10 1009 29.8 838 24.75 4.6 40.2 45 -6.4 20.5
08:15 1009 29.8 838 24.75 4.8 40.6 45 -6.3 20.7
08:20 1009 29.8 838 24.75 4.7 40.5 43 -6.8 19.8
08:25 1009 29.8 838 24.75 4.8 40.6 44 -6.3 20.6
08:30 1009 29.8 838 24.75 5.2 41.4 41 -6.8 19.7
08:35 1009 29.8 838 24.75 5.8 42.5 40 -6.8 19.8
08:40 1009 29.8 838 24.75 6.3 43.4 39 -6.8 19.8
08:45 1008 29.77 838 24.75 6.6 43.9 38 -6.7 19.9
08:50 1009 29.8 838 24.75 6.8 44.2 38 -6.5 20.2
08:55 1009 29.8 838 24.75 6.8 44.3 38 -6.4 20.5
09:00 1009 29.8 838 24.75 6.6 43.8 39 -6.4 20.5
09:05 1009 29.8 838 24.75 6.6 44 38 -6.8 19.8
09:10 1008 29.77 838 24.75 6.5 43.6 39 -6.5 20.4
09:15 1008 29.77 838 24.75 6.6 44 39 -6.5 20.3
09:20 1008 29.77 838 24.75 6.6 43.9 39 -6.3 20.7
09:25 1008 29.77 838 24.75 6.8 44.2 38 -6.5 20.4
09:30 1008 29.77 838 24.75 6.8 44.2 39 -6.2 20.8
09:35 1008 29.77 838 24.75 6.6 43.9 40 -6.1 21.1
09:40 1008 29.77 838 24.75 6.4 43.6 40 -6.2 20.9
09:45 1008 29.77 838 24.75 6.4 43.5 40 -6.1 21.1
09:50 1008 29.77 838 24.75 6.4 43.5 40 -6.1 21
09:55 1008 29.77 837 24.72 6.8 44.2 40 -5.8 21.6
10:00 1008 29.77 837 24.72 7.2 44.9 39 -5.7 21.7
10:05 1008 29.77 837 24.72 7.1 44.9 40 -5.6 21.9
10:10 1008 29.77 837 24.72 7.6 45.7 39 -5.5 22.1
10:15 1008 29.77 838 24.75 8 46.3 40 -4.8 23.4
10:20 1008 29.77 838 24.75 8 46.4 37 -5.8 21.6
10:25 1008 29.77 837 24.72 7.8 46.1 33 -7.3 18.8
10:30 1008 29.77 837 24.72 7.8 46 34 -7 19.3
10:35 1008 29.77 837 24.72 7.7 45.8 34 -7.2 19
10:40 1008 29.77 837 24.72 7.7 45.9 35 -6.9 19.5
10:45 1008 29.77 837 24.72 7.5 45.5 36 -6.5 20.3
10:50 1008 29.77 837 24.72 7.7 45.8 35 -6.8 19.8
10:55 1008 29.77 837 24.72 7.8 46 36 -6.3 20.6
11:00 1008 29.77 837 24.72 8.2 46.7 33 -7 19.5
11:05 1008 29.77 837 24.72 8.4 47 33 -6.8 19.7
11:10 1008 29.77 837 24.72 8.2 46.7 34 -6.7 20
11:15 1008 29.77 837 24.72 8.3 46.9 33 -7.2 19.1
11:20 1008 29.77 837 24.72 7.9 46.2 35 -6.7 19.9
11:25 1008 29.77 837 24.72 7.3 45.2 40 -5.4 22.2
11:30 1008 29.77 837 24.72 6.8 44.2 41 -5.4 22.2
11:35 1008 29.77 837 24.72 6.8 44.2 40 -6 21.2
11:40 1008 29.77 837 24.72 7.1 44.8 38 -6.3 20.7
11:45 1008 29.77 837 24.72 7.6 45.8 37 -6 21.3
11:50 1008 29.77 837 24.72 7.8 46.1 36 -6.3 20.6
11:55 1007 29.74 837 24.72 8 46.5 33 -7.1 19.3
12:00 1007 29.74 837 24.72 8 46.4 34 -7 19.3
12:05 1007 29.74 837 24.72 7.9 46.3 33 -7.4 18.7
12:10 1007 29.74 837 24.72 8 46.4 34 -6.9 19.5
12:15 1007 29.74 837 24.72 8.2 46.8 32 -7.3 18.9
12:20 1007 29.74 837 24.72 8.2 46.7 32 -7.5 18.6
12:25 1007 29.74 836 24.69 8 46.3 33 -7.2 19.1
12:30 1007 29.74 836 24.69 7.9 46.2 35 -6.5 20.2
12:35 1007 29.74 836 24.69 7.8 46.1 35 -6.8 19.8
12:40 1007 29.74 836 24.69 7.7 45.9 35 -6.8 19.7
12:45 1007 29.74 837 24.72 7.7 45.8 35 -6.9 19.6
12:50 1007 29.74 836 24.69 7.5 45.5 36 -6.5 20.4
12:55 1007 29.74 837 24.72 7.7 45.8 34 -7.4 18.7
13:00 1007 29.74 837 24.72 7.9 46.2 33 -7.6 18.4
13:05 1007 29.74 837 24.72 8.1 46.6 31 -7.9 17.8
13:10 1007 29.74 837 24.72 8.3 46.9 30 -8.5 16.8
13:15 1007 29.74 837 24.72 8.2 46.7 30 -8.4 16.9
13:20 1007 29.74 837 24.72 8.4 47.1 29 -8.8 16.2
13:25 1007 29.74 837 24.72 8.2 46.8 30 -8.4 16.9
13:30 1007 29.74 837 24.72 8.2 46.7 30 -8.3 17.1
13:35 1007 29.74 837 24.72 8.1 46.6 28 -9.1 15.6
13:40 1007 29.74 837 24.72 8.1 46.6 30 -8.4 16.9
13:45 1007 29.74 837 24.72 8 46.4 30 -8.5 16.6
13:50 1007 29.74 837 24.72 8.1 46.6 30 -8.5 16.8
13:55 1007 29.74 837 24.72 8.2 46.8 30 -8.2 17.2
14:00 1007 29.74 837 24.72 7.9 46.3 29 -9 15.8
14:05 1007 29.74 836 24.69 7.7 45.9 30 -8.7 16.3
14:10 1007 29.74 836 24.69 7.5 45.5 30 -9 15.8
14:15 1007 29.74 836 24.69 7.8 46.1 29 -8.9 15.9
14:20 1007 29.74 836 24.69 8 46.3 31 -8.1 17.3
14:25 1007 29.74 837 24.72 7.5 45.5 33 -7.8 17.9
14:30 1007 29.74 837 24.72 7.5 45.6 32 -8.1 17.4
14:35 1007 29.74 837 24.72 7.7 45.8 31 -8.6 16.6
14:40 1007 29.74 837 24.72 7.8 46 30 -8.7 16.4
14:45 1007 29.74 837 24.72 7.6 45.7 30 -9 15.8
14:50 1007 29.74 837 24.72 7.5 45.4 31 -8.6 16.5
14:55 1007 29.74 837 24.72 7.4 45.4 32 -8.2 17.2
15:00 1007 29.74 836 24.69 7.3 45.1 32 -8.4 16.9
15:05 1007 29.74 836 24.69 7.2 44.9 32 -8.5 16.7
15:10 1007 29.74 836 24.69 7 44.6 32 -8.7 16.4
15:15 1007 29.74 836 24.69 7 44.6 31 -8.8 16.1
15:20 1007 29.74 836 24.69 7.1 44.8 31 -8.9 16.1
15:25 1007 29.74 836 24.69 7.3 45.1 31 -8.7 16.4
15:30 1007 29.74 836 24.69 7.4 45.3 32 -8.3 17
15:35 1007 29.74 836 24.69 7.5 45.6 30 -8.7 16.3
15:40 1007 29.74 836 24.69 7.5 45.4 31 -8.6 16.5
15:45 1007 29.74 836 24.69 7.2 45 31 -8.7 16.4
15:50 1007 29.74 836 24.69 7 44.7 31 -8.8 16.2
15:55 1007 29.74 836 24.69 7 44.6 32 -8.8 16.2
16:00 1007 29.74 836 24.69 6.9 44.5 31 -9.1 15.6
16:05 1007 29.74 836 24.69 7 44.6 31 -9.2 15.4
16:10 1007 29.74 836 24.69 7.1 44.8 32 -8.6 16.4
16:15 1007 29.74 836 24.69 6.8 44.3 32 -8.7 16.3
16:20 1007 29.74 836 24.69 6.7 44.1 32 -8.7 16.3
16:25 1007 29.74 836 24.69 6.6 43.8 32 -9 15.8
16:30 1007 29.74 836 24.69 6.5 43.7 33 -8.7 16.3
16:35 1007 29.74 836 24.69 6.4 43.5 32 -9.1 15.6
16:40 1007 29.74 836 24.69 6.4 43.5 32 -9.1 15.7
16:45 1007 29.74 836 24.69 6.4 43.5 33 -8.8 16.2
16:50 1007 29.74 836 24.69 6.4 43.5 32 -9.3 15.3
16:55 1007 29.74 836 24.69 6.4 43.6 30 -9.9 14.2
17:00 1007 29.74 836 24.69 6.5 43.6 31 -9.3 15.2
17:05 1007 29.74 836 24.69 6.3 43.4 32 -9.3 15.3
17:10 1007 29.74 836 24.69 6.3 43.3 32 -9.2 15.4
17:15 1007 29.74 836 24.69 6.3 43.4 30 -10 14
17:20 1007 29.74 836 24.69 6.4 43.6 33 -8.6 16.5
17:25 1008 29.77 837 24.72 6.2 43.2 36 -7.8 17.9
17:30 1008 29.77 838 24.75 5.7 42.3 47 -4.8 23.4
17:35 1009 29.8 838 24.75 3.2 37.8 66 -2.4 27.6
17:40 1009 29.8 838 24.75 1.7 35.1 74 -2.4 27.8
17:45 1009 29.8 838 24.75 0.9 33.6 78 -2.5 27.5
17:50 1009 29.8 838 24.75 0.8 33.4 79 -2.5 27.5
17:55 1010 29.83 839 24.78 0.8 33.5 78 -2.6 27.3
18:00 1010 29.83 839 24.78 0.9 33.6 78 -2.5 27.4
18:05 1010 29.83 839 24.78 0.8 33.4 80 -2.3 27.8
18:10 1010 29.83 839 24.78 0.3 32.5 83 -2.2 28
18:15 1010 29.83 839 24.78 0.1 32.2 83 -2.5 27.6
18:20 1010 29.83 839 24.78 0.3 32.5 77 -3.4 25.9
18:25 1010 29.83 839 24.78 0.7 33.2 70 -4.2 24.5
18:30 1010 29.83 839 24.78 0.9 33.7 74 -3.1 26.3
18:35 1011 29.85 840 24.81 0.8 33.4 75 -3.3 26.1
18:40 1011 29.85 840 24.81 0.7 33.2 77 -2.9 26.8
18:45 1011 29.85 840 24.81 0.4 32.8 78 -3 26.6
18:50 1011 29.85 840 24.81 0.2 32.3 78 -3.3 26.1
18:55 1011 29.85 840 24.81 0.2 32.3 77 -3.3 26
19:00 1011 29.85 841 24.83 0.2 32.3 78 -3.3 26.1
19:05 1012 29.88 841 24.83 0.2 32.4 77 -3.3 26
19:10 1012 29.88 841 24.83 0.3 32.5 76 -3.5 25.7
19:15 1012 29.88 841 24.83 0.2 32.4 75 -3.6 25.5
19:20 1012 29.88 841 24.83 0.2 32.3 75 -3.7 25.4
19:25 1012 29.88 841 24.83 0.1 32.2 75 -3.8 25.2
19:30 1012 29.88 842 24.86 0.1 32.2 74 -4 24.8
19:35 1012 29.88 842 24.86 0.1 32.2 72 -4.3 24.3
19:40 1013 29.91 842 24.86 0.1 32.1 73 -4.3 24.3
19:45 1013 29.91 842 24.86 0 32.1 72 -4.5 23.9
19:50 1013 29.91 842 24.86 -0 31.9 69 -5.2 22.7
19:55 1013 29.91 842 24.86 -0.1 31.7 69 -5.2 22.6
20:00 1013 29.91 842 24.86 -0.2 31.6 69 -5.2 22.6
20:05 1013 29.91 843 24.89 -0.3 31.4 70 -5.2 22.7
20:10 1013 29.91 843 24.89 -0.4 31.3 70 -5.2 22.7
20:15 1013 29.91 843 24.89 -0.5 31.1 69 -5.4 22.3
20:20 1013 29.91 843 24.89 -0.6 31 69 -5.6 21.8
20:25 1014 29.94 843 24.89 -0.6 30.9 66 -6.2 20.8
20:30 1014 29.94 843 24.89 -0.6 31 64 -6.5 20.3
20:35 1014 29.94 843 24.89 -0.5 31 63 -6.7 20
20:40 1014 29.94 843 24.89 -0.5 31 63 -6.8 19.8
20:45 1014 29.94 843 24.89 -0.6 31 62 -7 19.3
20:50 1014 29.94 843 24.89 -0.6 30.9 62 -6.9 19.5
20:55 1014 29.94 843 24.89 -0.6 30.9 61 -7.2 19.1
21:00 1014 29.94 843 24.89 -0.6 30.9 60 -7.4 18.7
21:05 1014 29.94 843 24.89 -0.6 30.9 60 -7.4 18.7
21:10 1014 29.94 844 24.92 -0.7 30.8 60 -7.5 18.5
21:15 1014 29.94 844 24.92 -0.8 30.6 58 -8.1 17.4
21:20 1014 29.94 844 24.92 -0.8 30.6 56 -8.4 16.8
21:25 1015 29.97 844 24.92 -0.8 30.5 58 -8.1 17.5
21:30 1015 29.97 844 24.92 -0.9 30.4 59 -8 17.6
21:35 1015 29.97 844 24.92 -1.1 30.1 59 -8.1 17.4
21:40 1015 29.97 844 24.92 -1.2 29.8 59 -8.1 17.4
21:45 1015 29.97 844 24.92 -1.3 29.7 59 -8.2 17.2
21:50 1015 29.97 844 24.92 -1.5 29.2 60 -8.3 17.1
21:55 1015 29.97 845 24.95 -1.6 29.2 59 -8.7 16.4
22:00 1015 29.97 845 24.95 -1.5 29.3 59 -8.5 16.6
22:05 1015 29.97 845 24.95 -1.6 29.2 59 -8.7 16.4
22:10 1015 29.97 845 24.95 -1.6 29 59 -8.7 16.4
22:15 1015 29.97 845 24.95 -1.8 28.8 59 -8.8 16.1
22:20 1015 29.97 845 24.95 -1.7 29 56 -9.3 15.3
22:25 1015 29.97 845 24.95 -1.5 29.3 55 -9.4 15.1
22:30 1016 30 845 24.95 -1.4 29.5 54 -9.5 14.9
22:35 1016 30 845 24.95 -1.4 29.4 55 -9.4 15
22:40 1015 29.97 845 24.95 -1.6 29.1 54 -9.6 14.7
22:45 1015 29.97 845 24.95 -1.6 29.2 53 -10 14.1
22:50 1015 29.97 845 24.95 -1.4 29.5 50 -10.5 13.1
22:55 1015 29.97 845 24.95 -1.3 29.7 50 -10.5 13
23:00 1015 29.97 845 24.95 -1.3 29.6 50 -10.5 13.1
23:05 1016 30 845 24.95 -1.4 29.5 50 -10.5 13.2
23:10 1016 30 845 24.95 -1.4 29.5 51 -10.3 13.4
23:15 1016 30 845 24.95 -1.5 29.3 51 -10.5 13.2
23:20 1016 30 845 24.95 -1.6 29.2 52 -10.3 13.5
23:25 1016 30 845 24.95 -1.7 29 51 -10.5 13
23:30 1016 30 845 24.95 -1.5 29.2 49 -10.8 12.6
23:35 1016 30 845 24.95 -1.5 29.3 50 -10.7 12.8
23:40 1016 30 845 24.95 -1.5 29.3 49 -10.9 12.3
23:45 1016 30 845 24.95 -1.6 29.2 50 -10.6 12.9
23:50 1016 30 846 24.98 -1.7 29 51 -10.5 13.1
23:55 1016 30 846 24.98 -1.8 28.8 51 -10.6 13
24:00 1016 30 846 24.98 -1.9 28.6 51 -10.6 12.9